STARLINK-34584, 64697

Orbit data source: Space-Track

STARLINK-34584, 64697 is a payload satellite owned by SpaceX/Seattle (US) in LEO that was launched on Sat, 28 Jun 2025 UTC via an FALCON 9 launch vehicle from the Air Force Western Test Range (AFWTR). Payload-class satellites include a variety of spacecraft equipped with specific instruments for various scientific and technological missions. These include communications satellites like Starlink; space stations such as the ISS; scientific satellites like the Hubble; Earth observation satellites from companies like Planet Labs, Umbra, and HawkEye 360; GPS; miniature CubeSats for education and research; and military/defense satellites.

Loading next visibility...
Identifier
64697, 2025-142B
Orbit
LEO
Country
Flag of USUS
Related business
Manufacturer
SpaceX/Seattle
Mission
Operational Commercial Communications
Bus & Motor
STARLINK V2MO, Unknown motor
Mass
575 kg wet, ~530 kg dry
Launch date (UTC)
2025-06-28 (2 months ago)
Launch vehicle
FALCON 9
Launch site
Air Force Western Test Range (AFWTR)
Object type
Payload
Rocket body
Debris
Shape & HBR
Box + 1 Pan, 14.5 m
Radar Cross Section
41.120 m², Large (>1 m²)

Expand to show TLE details & history
Last TLE update: 19 hours ago

TLE from 19 hours ago
0 STARLINK-34584
1 64697U 25142B   25242.25526680  .00065849  00000-0  14981-2 0  9992
2 64697  70.0018  79.2105 0002393 277.9167  82.1744 15.42638166 10751
Epoch: 2025-08-30T06:07Z
TLE epoch observation values (Epoch: 2025-08-30T06:07:35.051Z)
Latitude
0.00005°
Longitude
8.62229°
Altitude
440.576 km
Speed
7.648 km/s
True Right ascension
05h 16m 50s
True Declination
0° 00' 00"
Sunlit
Object was in daylight at epoch
Visualization orbit readout
Latitude
Unknown
Longitude
Unknown
Altitude
Unknown
Speed
Unknown
Apparent Right ascension
Unknown
Apparent Declination
Unknown
Sunlit
N/A
Visualization observer readout
Local Sidereal Time
16:44:03
Azimuth
Unknown
Elevation
Unknown
Doppler factor
Unknown
Orbital elements
Apogee altitude
437.865 km
Perigee altitude
434.604 km
Semi-major axis
6,814.371 km
Eccentricity
0.00024
Inclination
70.0018°
RAAN
79.2105°
Arg. of periapsis
277.9167°
True anomaly
82.20157°
Mean anomaly
82.1744°
Eccentric anomaly
82.18798°
Mean motion
3.85838 °/min
Orbital period
93.3 mins
BSTAR
0.0014981
Loading maneuver chart data...
Computing Atmospheric mass density...
Loading historical data...
Loading historical data...
Loading historical data...
Loading historical data...
Loading historical data...
Loading historical data...
Loading historical data...

Documentation

Showing up to 5 results
|